DW6873 Weather Reports


Display with metric or nautical units.
time (UTC)temp
F
wind
direction
speed
MPH
gust
MPH
rain 1hr
in
rain 24hr
in
rain mn
in
humidity
%
barometer
mb
20260906223038 87 179 0.0 0.0 0.00 0.00 0.00 47 1006.3
20260906221535 87 179 0.0 0.0 0.00 0.00 0.00 46 1006.5
20260906220033 86 186 0.0 0.0 0.00 0.00 0.00 48 1006.8
20260906214530 85 134 0.0 0.0 0.00 0.00 0.00 51 1007.1
20260906213027 84 104 0.0 1.0 0.00 0.00 0.00 52 1007.3
20260906211524 85 138 0.0 0.0 0.00 0.00 0.00 54 1007.5
20260906210031 85 133 0.0 0.0 0.00 0.00 0.00 58 1007.8
20260906204529 84 131 0.0 0.0 0.00 0.00 0.00 61 1008.0
20260906203029 83 108 0.0 1.0 0.00 0.00 0.00 64 1008.3
20260906201529 83 96 0.0 0.0 0.00 0.00 0.00 68 1008.5
20260906200026 82 167 0.0 1.0 0.00 0.00 0.00 69 1008.8
20260906194524 82 139 0.0 1.0 0.00 0.00 0.00 64 1009.2
20260906193023 85 109 0.0 1.0 0.00 0.00 0.00 60 1009.3
20260906191521 83 86 0.0 1.0 0.00 0.00 0.00 64 1008.9
20260906190015 83 64 0.0 0.0 0.00 0.00 0.00 63 1008.7
20260906184514 82 148 0.0 0.0 0.00 0.00 0.00 65 1008.4
20260906183015 81 50 0.0 0.0 0.00 0.00 0.00 68 1008.5
20260906181506 79 94 0.0 0.0 0.00 0.00 0.00 71 1009.3
20260906180002 78 86 0.0 0.0 0.00 0.00 0.00 70 1009.4
20260906174600 74 25 0.0 0.0 0.00 0.00 0.00 80 1009.4
20260906173106 73 24 0.0 0.0 0.00 0.00 0.00 84 1009.4
20260906171600 70 59 0.0 0.0 0.00 0.00 0.00 92 1009.7
20260906164557 69 34 0.0 0.0 0.00 0.00 0.00 93 1010.4
20260906163056 69 61 0.0 0.0 0.00 0.00 0.00 92 1010.6
20260906161555 69 311 0.0 0.0 0.00 0.00 0.00 92 1010.2
20260906160054 69 304 0.0 1.0 0.00 0.00 0.00 91 1010.6
20260906154551 72 316 0.0 0.0 0.00 0.00 0.00 86 1010.6
20260906153050 75 307 0.0 0.0 0.00 0.00 0.00 83 1009.2
20260906151552 78 317 0.0 0.0 0.00 0.00 0.00 79 1009.0
20260906150046 78 255 0.0 0.0 0.00 0.00 0.00 81 1008.7
20260906144541 76 180 0.0 0.0 0.00 0.00 0.00 88 1008.8
20260906143036 74 193 0.0 0.0 0.00 0.00 0.00 92 1008.9
20260906141536 72 183 0.0 0.0 0.00 0.00 0.00 97 1009.0
20260906140033 71 215 0.0 0.0 0.00 0.00 0.00 97 1009.3
20260906134531 71 188 0.0 0.0 0.00 0.00 0.00 98 1009.5
20260906133029 69 229 0.0 0.0 0.00 0.00 0.00 98 1009.5
20260906131529 67 316 0.0 0.0 0.00 0.00 0.00 98 1009.2
20260906130025 0 0.0 0.0 0.00 0.00 0.00 1009.2
20260906124517 0 0.0 0.0 0.00 0.00 0.00 1009.0
20260906123013 0 0.0 0.0 0.00 0.00 0.00 1009.1
20260906121508 0 0.0 0.0 0.00 0.00 0.00 1009.1
20260906120009 0 0.0 0.0 0.00 0.00 0.00 1009.1
20260906114557 0 0.0 0.0 0.00 0.00 0.00 1008.9
20260906113057 0 0.0 0.0 0.00 0.00 0.00 1008.9
20260906111549 0 0.0 0.0 0.00 0.00 0.00 1009.0
20260906110044 0 0.0 0.0 0.00 0.00 0.00 1009.1
20260906104511 0 0.0 0.0 0.00 0.00 0.00 1009.0
20260906103010 0 0.0 0.0 0.00 0.00 0.00 1009.0
20260906101600 65 100 0.0 0.0 0.00 0.00 0.00 95 1008.9
20260906100057 65 114 0.0 0.0 0.00 0.00 0.00 96 1008.7
20260906094558 65 114 0.0 0.0 0.00 0.00 0.00 95 1008.7
20260906093057 66 114 0.0 0.0 0.00 0.00 0.00 95 1008.8
20260906091550 66 107 0.0 0.0 0.00 0.00 0.00 95 1008.9
20260906090050 66 132 0.0 0.0 0.00 0.00 0.00 95 1009.0
20260906084548 66 62 0.0 0.0 0.00 0.00 0.00 95 1008.8
20260906083048 66 84 0.0 0.0 0.00 0.00 0.00 94 1008.7
20260906081545 67 28 0.0 0.0 0.00 0.00 0.00 94 1008.6
20260906080043 67 60 0.0 0.0 0.00 0.00 0.00 94 1008.7
20260906074541 67 64 0.0 0.0 0.00 0.00 0.00 93 1008.8
20260906073039 68 64 0.0 0.0 0.00 0.00 0.00 93 1008.9
20260906071536 68 133 0.0 0.0 0.00 0.00 0.00 92 1009.1
20260906070034 68 104 0.0 0.0 0.00 0.00 0.00 92 1008.8
20260906064536 69 102 0.0 0.0 0.00 0.00 0.00 91 1008.8
20260906063031 69 98 0.0 0.0 0.00 0.00 0.00 90 1008.9
20260906061621 69 118 0.0 0.0 0.00 0.00 0.00 90 1008.9
20260906060109 69 75 0.0 0.0 0.00 0.00 0.00 90 1008.9
20260906054558 69 67 0.0 0.0 0.00 0.00 0.00 89 1008.9
20260906053056 69 99 0.0 0.0 0.00 0.00 0.00 89 1008.8
20260906051604 69 92 0.0 0.0 0.00 0.00 0.00 90 1008.9
20260906050057 69 82 0.0 0.0 0.00 0.00 0.00 90 1008.9
20260906044551 69 63 0.0 0.0 0.00 0.00 0.00 90 1009.0
20260906043048 70 76 0.0 0.0 0.00 0.00 0.00 89 1008.9
20260906041546 70 75 0.0 0.0 0.00 0.00 0.00 88 1008.6
20260906040047 70 134 0.0 0.0 0.00 0.00 0.00 88 1008.6
20260906034539 71 61 0.0 0.0 0.00 0.00 0.00 86 1008.6
20260906033038 71 65 0.0 0.0 0.00 0.00 0.00 83 1008.6
20260906031534 72 84 0.0 0.0 0.00 0.00 0.00 81 1008.4
20260906030031 73 60 0.0 0.0 0.00 0.00 0.00 82 1008.4
20260906024530 73 70 0.0 0.0 0.00 0.00 0.00 83 1008.2
20260906023106 73 59 0.0 0.0 0.00 0.00 0.00 80 1008.1
20260906021555 75 353 0.0 0.0 0.00 0.00 0.00 75 1007.8
20260906020024 76 58 0.0 0.0 0.00 0.00 0.00 74 1007.3
20260906014523 77 94 0.0 0.0 0.00 0.00 0.00 72 1007.0
20260906013033 79 98 0.0 0.0 0.00 0.00 0.00 68 1006.8
20260906011519 81 138 0.0 0.0 0.00 0.00 0.00 64 1006.7
20260906010020 83 160 0.0 0.0 0.00 0.00 0.00 61 1006.8
20260906004518 85 98 0.0 0.0 0.00 0.00 0.00 57 1007.0
20260906003048 87 115 0.0 1.0 0.00 0.00 0.00 54 1006.9
20260906001547 90 150 0.0 3.0 0.00 0.00 0.00 48 1006.7
20260906000045 91 133 0.0 0.0 0.00 0.00 0.00 45 1006.6
20260905234544 91 140 0.0 0.0 0.00 0.00 0.00 44 1006.7
20260905233045 92 143 0.0 0.0 0.00 0.00 0.00 43 1006.8
20260905231543 92 82 0.0 0.0 0.00 0.00 0.00 42 1006.6
20260905230040 92 176 0.0 0.0 0.00 0.00 0.00 43 1006.4
20260905224539 92 140 0.0 0.0 0.00 0.00 0.00 43 1006.1